EW5822 Weather Reports


Display with metric or nautical units.
time (UTC)temp
F
wind
direction
speed
MPH
gust
MPH
rain 1hr
in
rain 24hr
in
rain mn
in
humidity
%
barometer
mb
20260831101114 78 154 13.0 20.0 0.00 0.00 0.00 65 1010.8
20260831100216 77 150 12.0 17.0 0.00 0.00 0.00 69 1010.7
20260831095403 75 127 11.0 16.0 0.00 0.00 0.00 72 1010.7
20260831094715 75 124 10.0 14.0 0.00 0.00 0.00 74 1010.6
20260831093817 74 133 11.0 14.0 0.00 0.00 0.00 74 1010.3
20260831092915 73 137 8.0 10.0 0.00 0.00 0.00 77 1010.4
20260831092017 73 118 7.0 8.0 0.00 0.00 0.00 78 1010.5
20260831090903 74 124 7.0 8.0 0.00 0.00 0.00 77 1010.5
20260831090003 74 118 3.0 7.0 0.00 0.00 0.00 77 1010.5
20260831085403 74 126 3.0 4.0 0.00 0.00 0.00 76 1010.5
20260831084503 74 120 4.0 8.0 0.00 0.00 0.00 76 1010.3
20260831083813 75 113 6.0 8.0 0.00 0.00 0.00 75 1010.0
20260831082915 75 145 3.0 6.0 0.00 0.00 0.00 75 1010.0
20260831082013 74 144 2.0 4.0 0.00 0.00 0.00 76 1010.2
20260831080903 75 144 3.0 3.0 0.00 0.00 0.00 75 1010.1
20260831080003 75 144 4.0 6.0 0.00 0.00 0.00 74 1010.0
20260831075614 75 146 5.0 6.0 0.00 0.00 0.00 74 1010.0
20260831074716 77 159 7.0 8.0 0.00 0.00 0.00 72 1009.9
20260831073814 78 169 6.0 9.0 0.00 0.00 0.00 68 1009.9
20260831072703 76 143 6.0 9.0 0.00 0.00 0.00 71 1010.0
20260831071806 76 137 7.0 9.0 0.00 0.00 0.00 72 1009.6
20260831071116 77 144 6.0 8.0 0.00 0.00 0.00 71 1009.9
20260831070213 78 154 6.0 9.0 0.00 0.00 0.00 68 1010.1
20260831065614 78 158 7.0 8.0 0.00 0.00 0.00 67 1010.1
20260831064503 78 161 7.0 10.0 0.00 0.00 0.00 69 1010.1
20260831063814 78 165 6.0 7.0 0.00 0.00 0.00 69 1010.2
20260831062917 79 166 5.0 7.0 0.00 0.00 0.00 67 1010.3
20260831062014 81 166 5.0 6.0 0.00 0.00 0.00 66 1010.3
20260831061116 81 160 5.0 6.0 0.00 0.00 0.00 65 1010.3
20260831060003 80 151 5.0 8.0 0.00 0.00 0.00 67 1010.1
20260831055615 80 153 6.0 8.0 0.00 0.00 0.00 67 1010.0
20260831054503 79 156 7.0 9.0 0.00 0.00 0.00 69 1009.9
20260831053815 79 144 6.0 8.0 0.00 0.00 0.00 70 1009.6
20260831052917 80 150 4.0 7.0 0.00 0.00 0.00 68 1009.4
20260831051803 81 153 5.0 7.0 0.00 0.00 0.00 66 1009.4
20260831051122 81 154 5.0 7.0 0.00 0.00 0.00 66 1009.4
20260831050214 81 157 6.0 7.0 0.00 0.00 0.00 66 1009.2
20260831045403 81 163 5.0 7.0 0.00 0.00 0.00 66 1009.2
20260831044713 82 168 5.0 8.0 0.00 0.00 0.00 65 1009.1
20260831043815 83 176 4.0 7.0 0.00 0.00 0.00 62 1009.1
20260831042913 84 179 4.0 6.0 0.00 0.00 0.00 61 1009.1
20260831041804 84 179 4.0 6.0 0.00 0.00 0.00 60 1009.0
20260831040903 84 175 5.0 7.0 0.00 0.00 0.00 60 1008.9
20260831040215 85 176 4.0 7.0 0.00 0.00 0.00 59 1008.8
20260831035403 85 181 4.0 6.0 0.00 0.00 0.00 59 1008.9
20260831034714 85 188 3.0 5.0 0.00 0.00 0.00 59 1008.7
20260831033816 85 189 4.0 4.0 0.00 0.00 0.00 59 1008.8
20260831032913 85 189 4.0 5.0 0.00 0.00 0.00 60 1008.6
20260831031803 85 192 5.0 6.0 0.00 0.00 0.00 60 1008.7
20260831030903 86 192 4.0 6.0 0.00 0.00 0.00 60 1008.6
20260831030215 86 189 5.0 6.0 0.00 0.00 0.00 60 1008.5
20260831025617 86 183 4.0 6.0 0.00 0.00 0.00 60 1008.4
20260831024714 86 184 4.0 12.0 0.00 0.00 0.00 60 1008.3
20260831023603 86 190 3.0 5.0 0.00 0.00 0.00 59 1008.2
20260831022703 86 180 2.0 9.0 0.00 0.00 0.00 60 1008.1
20260831021803 87 145 4.0 8.0 0.00 0.00 0.00 60 1007.8
20260831021114 88 155 4.0 9.0 0.00 0.00 0.00 57 1007.6
20260831020216 88 155 2.0 6.0 0.00 0.00 0.00 57 1007.5
20260831015403 89 155 2.0 6.0 0.00 0.00 0.00 57 1007.3
20260831014503 88 154 2.0 4.0 0.00 0.00 0.00 57 1007.3
20260831013603 87 137 1.0 3.0 0.00 0.00 0.00 62 1007.1
20260831012703 88 134 4.0 8.0 0.00 0.00 0.00 61 1007.0
20260831012017 88 130 7.0 10.0 0.00 0.00 0.00 61 1006.8
20260831011114 89 116 9.0 11.0 0.00 0.00 0.00 59 1006.7
20260831010217 90 96 10.0 12.0 0.00 0.00 0.00 58 1006.6
20260831005613 91 96 10.0 13.0 0.00 0.00 0.00 56 1006.5
20260831004503 92 86 10.0 13.0 0.00 0.00 0.00 55 1006.5
20260831003604 93 114 9.0 12.0 0.00 0.00 0.00 54 1006.6
20260831002915 94 54 10.0 12.0 0.00 0.00 0.00 53 1006.5
20260831001803 96 85 9.0 11.0 0.00 0.00 0.00 51 1006.5
20260831001115 97 114 9.0 12.0 0.00 0.00 0.00 49 1006.5
20260831000003 98 123 9.0 13.0 0.00 0.00 0.00 45 1006.6
20260830235403 99 132 10.0 14.0 0.00 0.00 0.00 43 1006.6
20260830234503 100 135 10.0 14.0 0.00 0.00 0.00 41 1006.6
20260830233603 101 145 12.0 17.0 0.00 0.00 0.00 39 1006.4
20260830232916 102 149 12.0 19.0 0.00 0.00 0.00 38 1006.5
20260830231803 102 153 12.0 20.0 0.00 0.00 0.00 37 1006.4
20260830230903 102 155 14.0 21.0 0.00 0.00 0.00 36 1006.4
20260830230213 103 155 14.0 21.0 0.00 0.00 0.00 36 1006.3
20260830225614 103 159 15.0 23.0 0.00 0.00 0.00 36 1006.3
20260830224503 103 155 15.0 24.0 0.00 0.00 0.00 36 1006.3
20260830223603 103 159 16.0 23.0 0.00 0.00 0.00 36 1006.3
20260830222703 103 158 18.0 27.0 0.00 0.00 0.00 35 1006.3
20260830222014 104 154 18.0 24.0 0.00 0.00 0.00 35 1006.3
20260830220903 104 162 20.0 28.0 0.00 0.00 0.00 35 1006.3
20260830220214 104 159 18.0 29.0 0.00 0.00 0.00 35 1006.4
20260830215615 104 157 19.0 29.0 0.00 0.00 0.00 35 1006.4
20260830214503 104 160 21.0 30.0 0.00 0.00 0.00 35 1006.5
20260830213603 104 163 18.0 28.0 0.00 0.00 0.00 35 1006.7
20260830212917 104 160 18.0 28.0 0.00 0.00 0.00 35 1006.7
20260830211803 104 171 15.0 24.0 0.00 0.00 0.00 36 1006.9
20260830211117 104 166 19.0 28.0 0.00 0.00 0.00 36 1006.9
20260830210003 103 168 18.0 33.0 0.00 0.00 0.00 35 1007.0
20260830205616 104 168 19.0 30.0 0.00 0.00 0.00 36 1007.0
20260830204503 104 167 19.0 31.0 0.00 0.00 0.00 35 1007.2
20260830203815 103 165 17.0 31.0 0.00 0.00 0.00 35 1007.2
20260830202703 103 173 15.0 24.0 0.00 0.00 0.00 36 1007.3
20260830201803 103 173 17.0 29.0 0.00 0.00 0.00 36 1007.4
20260830200903 103 171 15.0 24.0 0.00 0.00 0.00 35 1007.6
20260830200003 103 164 14.0 22.0 0.00 0.00 0.00 36 1007.7
20260830195403 103 177 14.0 21.0 0.00 0.00 0.00 37 1007.9
20260830194503 102 188 15.0 24.0 0.00 0.00 0.00 36 1008.1
20260830193603 102 185 15.0 26.0 0.00 0.00 0.00 37 1008.2
20260830192703 102 188 14.0 26.0 0.00 0.00 0.00 36 1008.1
20260830191803 101 182 16.0 26.0 0.00 0.00 0.00 37 1008.3
20260830190903 101 178 16.0 28.0 0.00 0.00 0.00 38 1008.3
20260830190004 101 170 16.0 30.0 0.00 0.00 0.00 37 1008.3
20260830185403 101 174 14.0 24.0 0.00 0.00 0.00 38 1008.4
20260830184714 100 177 14.0 24.0 0.00 0.00 0.00 39 1008.4
20260830183603 99 164 20.0 31.0 0.00 0.00 0.00 40 1008.6
20260830182703 99 165 18.0 26.0 0.00 0.00 0.00 39 1008.6
20260830182016 99 180 15.0 22.0 0.00 0.00 0.00 41 1008.7
20260830180903 99 174 15.0 26.0 0.00 0.00 0.00 39 1008.8
20260830180003 98 176 17.0 26.0 0.00 0.00 0.00 40 1009.0
20260830175613 98 172 17.0 26.0 0.00 0.00 0.00 39 1009.0
20260830174715 98 169 17.0 25.0 0.00 0.00 0.00 41 1009.1
20260830173603 97 178 15.0 25.0 0.00 0.00 0.00 42 1009.2
20260830172704 97 172 16.0 28.0 0.00 0.00 0.00 41 1009.3
20260830171803 97 185 16.0 23.0 0.00 0.00 0.00 41 1009.3
20260830170903 96 173 16.0 23.0 0.00 0.00 0.00 42 1009.3
20260830170003 96 182 15.0 24.0 0.00 0.00 0.00 43 1009.3
20260830165403 95 183 17.0 30.0 0.00 0.00 0.00 44 1009.3
20260830164716 95 174 16.0 29.0 0.00 0.00 0.00 43 1009.3
20260830163813 94 164 21.0 31.0 0.00 0.00 0.00 46 1009.4
20260830162915 95 174 16.0 31.0 0.00 0.00 0.00 44 1009.4
20260830161803 93 183 18.0 29.0 0.00 0.00 0.00 46 1009.3
20260830161115 93 169 17.0 29.0 0.00 0.00 0.00 47 1009.2
20260830160003 92 170 20.0 30.0 0.00 0.00 0.00 48 1009.0
20260830155614 92 172 18.0 29.0 0.00 0.00 0.00 47 1009.0
20260830154716 91 169 21.0 33.0 0.00 0.00 0.00 49 1008.9
20260830153603 91 167 22.0 34.0 0.00 0.00 0.00 49 1008.8
20260830152703 90 170 20.0 33.0 0.00 0.00 0.00 49 1008.8
20260830152013 90 164 18.0 29.0 0.00 0.00 0.00 51 1008.7
20260830150903 89 160 19.0 27.0 0.00 0.00 0.00 52 1008.6
20260830150213 88 158 18.0 27.0 0.00 0.00 0.00 53 1008.5
20260830145614 88 155 18.0 29.0 0.00 0.00 0.00 53 1008.6
20260830144717 87 157 17.0 25.0 0.00 0.00 0.00 54 1008.7
20260830143814 86 154 16.0 24.0 0.00 0.00 0.00 55 1008.8
20260830142703 85 147 13.0 18.0 0.00 0.00 0.00 57 1008.8
20260830142014 84 145 15.0 23.0 0.00 0.00 0.00 59 1008.8
20260830141116 83 140 13.0 18.0 0.00 0.00 0.00 60 1008.9
20260830140213 82 139 13.0 19.0 0.00 0.00 0.00 61 1008.9
20260830135615 81 140 12.0 19.0 0.00 0.00 0.00 62 1009.0
20260830134712 80 134 11.0 19.0 0.00 0.00 0.00 65 1009.0
20260830133815 78 128 10.0 15.0 0.00 0.00 0.00 67 1009.2
20260830132703 77 103 11.0 14.0 0.00 0.00 0.00 69 1009.1
20260830132014 76 98 11.0 13.0 0.00 0.00 0.00 70 1009.3
20260830130903 76 129 11.0 14.0 0.00 0.00 0.00 69 1009.3
20260830130003 76 129 12.0 16.0 0.00 0.00 0.00 69 1009.3
20260830125403 76 126 12.0 16.0 0.00 0.00 0.00 69 1009.2
20260830124503 76 123 12.0 16.0 0.00 0.00 0.00 70 1009.3
20260830123603 76 125 12.0 16.0 0.00 0.00 0.00 70 1009.3
20260830122703 76 117 12.0 15.0 0.00 0.00 0.00 69 1009.2
20260830121803 76 134 9.0 13.0 0.00 0.00 0.00 69 1009.3
20260830120903 76 130 10.0 13.0 0.00 0.00 0.00 69 1009.3
20260830120215 76 121 10.0 14.0 0.00 0.00 0.00 69 1009.3
20260830115616 76 118 10.0 15.0 0.00 0.00 0.00 69 1009.3
20260830114503 76 122 12.0 15.0 0.00 0.00 0.00 68 1009.3
20260830113603 76 126 12.0 17.0 0.00 0.00 0.00 67 1009.2
20260830112913 77 128 13.0 17.0 0.00 0.00 0.00 67 1009.2
20260830111803 76 112 13.0 15.0 0.00 0.00 0.00 68 1009.1
20260830110903 76 106 12.0 15.0 0.00 0.00 0.00 69 1009.1
20260830110215 76 115 11.0 14.0 0.00 0.00 0.00 69 1009.2
20260830105403 76 95 11.0 13.0 0.00 0.00 0.00 70 1009.2
20260830104714 76 107 10.0 13.0 0.00 0.00 0.00 70 1009.2
20260830103603 76 126 10.0 13.0 0.00 0.00 0.00 69 1009.3
20260830102914 76 123 10.0 12.0 0.00 0.00 0.00 69 1009.3
20260830102016 76 129 9.0 12.0 0.00 0.00 0.00 68 1009.4